Regional Weather Roundup
Issued by NWS

Home | Current Version | Previous Version | Graphics & Text | Print | Product List | Glossary On
Versions: 1 2 3 4 5 6 7 8 9 10 11 12 13 14 15 16 17 18 19 20 21 22 23 24 25 26 27 28 29 30 31 32 33 34 35 36 37 38 39 40 41 42 43 44 45 46 47 48 49 50
338
ASUS44 KJAN 310110
RWRMS

MISSISSIPPI HOURLY WEATHER ROUNDUP
NATIONAL WEATHER SERVICE JACKSON MS
800 PM CDT THU OCT 30 2014

NOTE: "FAIR: INDICATES FEW OR NO CLOUDS BELOW 12,000 FEET WITH NO
SIGNIFICANT WEATHER AND/OR OBSTRUCTIONS TO VISIBILITY.

MSZ001>002-007>008-010>013-018>021-025>028-034>036-310200-
NORTHWEST MISSISSIPPI

CITY           SKY/WX    TMP DP  RH WIND       PRES   REMARKS
CLARKSDALE     MOCLDY    61  57  88 CALM      30.05S
CLEVELAND      FAIR      62  52  70 SW3       30.04R
GREENWOOD      PTCLDY    54  51  90 CALM      30.04F
GREENVILLE     PTCLDY    60  48  64 SW5       30.04F
GRENADA        MOCLDY    54  50  87 CALM      30.05F
OLIVE BRANCH   CLOUDY    57  45  62 CALM      30.04F
OXFORD         FAIR      54  48  82 CALM      30.07R
TUNICA         MOCLDY    61  50  67 CALM      30.05S
$$

MSZ003>006-009-014>017-022>024-029>033-037>039-310200-
NORTHEAST MISSISSIPPI

CITY           SKY/WX    TMP DP  RH WIND       PRES   REMARKS
COLUMBUS AFB   CLEAR     49  45  85 NW2       30.05R
CORINTH        FAIR      50  45  81 CALM      30.04F
GOLDN TRIANGLE CLEAR     52  43  71 CALM      30.04S
STARKVILLE     FAIR      48  45  87 CALM      30.05S
TUPELO         CLEAR     53  46  77 W3        30.05S
$$

MSZ040-058-310200-
CENTRAL MISSISSIPPI

CITY           SKY/WX    TMP DP  RH WIND       PRES   REMARKS
JACKSON INTL   CLEAR     55  45  68 CALM      30.06S
JACKSON HAWKNS CLEAR     61  43  51 NW5       30.06S
MERIDIAN KEY   CLEAR     50  43  77 CALM      30.04S
MERIDIAN NAS   PTCLDY    53  44  71 CALM      30.04S
RAYMOND        FAIR      50  46  87 CALM      30.06S
VICKSBURG      CLEAR     51  48  89 CALM      30.07R
$$

MSZ059>079-310200-
SOUTH MISSISSIPPI

CITY           SKY/WX    TMP DP  RH WIND       PRES   REMARKS
BROOKHAVEN     FAIR      54  45  71 CALM      30.07S
COLUMBIA         N/A     52  48  87 MISG      30.04R
HATTIESBURG    CLEAR     54  47  77 CALM      30.04S
MCCOMB         CLEAR     57  44  62 CALM      30.05S
NATCHEZ        CLEAR     55  48  76 CALM      30.07S
PINE BELT      CLEAR     52  43  71 NW3       30.05S
$$

MSZ080>082-310200-
COASTAL MISSISSIPPI

CITY           SKY/WX    TMP DP  RH WIND       PRES   REMARKS
BAY ST LOUIS   CLEAR     52  45  76 CALM      30.04S
BILOXI         CLEAR     65  45  49 N3        30.03R
PASCAGOULA     CLEAR     50  44  80 CALM      30.02S
GULFPORT       CLEAR     57  45  64 NW3       30.02S
$$



USA.gov is the U.S. government's official web portal to all federal, state and local government web resources and services.